Renton, WA
on Wednesday, November 7, 2012

Wednesday
Previous Day Next Day
Daily Summary
 ActualAverage (KSEA)Record (KSEA)
Temperature
Mean Temperature °F 47°F  
Max Temperature 55°F 53°F 62°F (2008)
Min Temperature 39°F 42°F 31°F (1952)
Degree Days
Heating Degree Days 16 18  
Month to date heating degree days 119  
Since 1 July heating degree days 716  
Cooling Degree Days 0 0  
Month to date cooling degree days 0  
Year to date cooling degree days 189  
Moisture
Dew Point 40°F   
Average Humidity 72    
Maximum Humidity 89    
Minimum Humidity 44    
Precipitation
Precipitation 0.00 in 0.20 in 1.93 in (1995)
Month to date precipitation 1.39  
Year to date precipitation 26.96  
Snow
Snow 0.00 in in T in (1945)
Month to date snowfall  
Since 1 July snowfall  
Snow Depth in   
Wind
Wind Speed 5 mph   
Max Wind Speed 9 mph   
Max Gust Speed 16 mph   
Visibility 10 miles   
Events     

Key: T is trace of precipitation, MM is missing value
Source: NWS Daily Summary
Time(PST)TemperatureDew PointHumidity Pressure Visibility Wind DirectionWind SpeedGust SpeedPrecipitationEvents Conditions
12:53 AM 48.9°F 44.1°F 83% 30.06 in 10.0 miles SSE 8.1 mph - N/A   Clear
1:53 AM 48.9°F 44.1°F 83% 30.06 in 10.0 miles SSE 8.1 mph - N/A   Clear
2:53 AM 48.9°F 43.0°F 80% 30.07 in 10.0 miles SSE 6.9 mph 16.1 mph N/A   Clear
3:53 AM 46.9°F 42.1°F 83% 30.10 in 10.0 miles Calm Calm - N/A   Clear
4:12 AM 48.2°F 42.8°F 82% 30.09 in 10.0 miles South 4.6 mph - N/A   Mostly Cloudy
4:53 AM 48.9°F 43.0°F 80% 30.12 in 10.0 miles Variable 4.6 mph - N/A   Mostly Cloudy
5:53 AM 48.0°F 42.1°F 80% 30.13 in 10.0 miles SE 4.6 mph - N/A   Mostly Cloudy
6:36 AM 48.2°F 41.0°F 76% 30.12 in 10.0 miles SE 4.6 mph - N/A   Mostly Cloudy
6:53 AM 48.0°F 41.0°F 77% 30.14 in 10.0 miles SSE 4.6 mph - N/A   Mostly Cloudy
6:59 AM 48.2°F 41.0°F 76% 30.13 in 10.0 miles SSE 3.5 mph - N/A   Mostly Cloudy
7:53 AM 48.0°F 42.1°F 80% 30.15 in 10.0 miles ESE 4.6 mph - N/A   Mostly Cloudy
8:45 AM 50.0°F 41.0°F 71% 30.13 in 10.0 miles SSE 5.8 mph - N/A   Scattered Clouds
8:53 AM 50.0°F 41.0°F 71% 30.14 in 10.0 miles SSE 8.1 mph - N/A   Scattered Clouds
9:53 AM 50.0°F 41.0°F 71% 30.15 in 10.0 miles SSE 5.8 mph - N/A   Overcast
10:53 AM 51.1°F 41.0°F 68% 30.15 in 10.0 miles SSE 4.6 mph - N/A   Overcast
11:53 AM 54.0°F 39.0°F 57% 30.14 in 10.0 miles South 9.2 mph - N/A   Overcast
12:53 PM 55.0°F 39.0°F 55% 30.13 in 10.0 miles South 9.2 mph - N/A   Mostly Cloudy
1:53 PM 55.0°F 37.0°F 51% 30.12 in 10.0 miles SSW 9.2 mph - N/A   Mostly Cloudy
2:53 PM 55.4°F 33.8°F 44% 30.08 in 10.0 miles SSW 6.9 mph - N/A   Clear
3:53 PM 53.1°F 34.0°F 48% 30.09 in 10.0 miles SSW 5.8 mph - N/A   Clear
4:53 PM 51.1°F 36.0°F 56% 30.08 in 10.0 miles Calm Calm - N/A   Scattered Clouds
5:53 PM 48.0°F 37.0°F 66% 30.06 in 10.0 miles Calm Calm - N/A   Clear
6:53 PM 46.9°F 39.0°F 74% 30.06 in 10.0 miles Calm Calm - N/A   Mostly Cloudy
7:53 PM 46.0°F 39.0°F 76% 30.05 in 10.0 miles SSE 3.5 mph - N/A   Partly Cloudy
8:53 PM 45.0°F 39.0°F 80% 30.04 in 10.0 miles SSE 3.5 mph - N/A   Clear
9:53 PM 44.1°F 39.0°F 82% 30.02 in 10.0 miles Calm Calm - N/A   Clear
10:53 PM 43.0°F 37.9°F 82% 29.99 in 10.0 miles Calm Calm - N/A   Clear
11:53 PM 39.9°F 37.0°F 89% 29.97 in 10.0 miles Calm Calm - N/A   Clear
Moon Phase
Nov. 07 Nov. 13 Nov. 20 Nov. 28 Dec. 06
Sunrise:07:02 AM (PST) Moon Rise:No Moon Rise/
Sunset:04:41 PM (PST) Moon Set:01:19 PM (PST)11/7

Copyright © 2014 The Weather Underground, Inc.